VABBVASU

Guest
Details From VABB - Bombay Mumbai Chhatrapati Shivaji Intl
To VASU - SURAT
Flight Number -
Tags generated
Created
Modified
Stats Distance 125 nm / 232 km
Max Altitude 7,500 ft / 2,286 m
Waypoints 4
Social Downloads 3
Likes 0
Share VATSIM

Download

Looking for another format? Having issues loading an existing format? Contact us
Advertisement - Login to hide

Notes

Basic altitude profile: - Ascent Rate: 2500ft/min - Ascent Speed: 250kts - Cruise Altitude: 35000ft - Cruise Speed: 420kts - Descent Rate: 1500ft/min - Descent Speed: 250kts Options: - Use NATs: yes - Use PACOTS: yes - Use low airways: yes - Use high airways: yes

Route

VABB BBB W16N DOTIP VASU

ID Type Via Altitude Latitude Longitude Leg Dist Tot Dist Heading (true) Name
O VABB APT - 0 ft / 0 m 19.08898˚ 72.86591˚ - 0 nm - Bombay Mumbai Chhatrapati Shivaji Intl
BBB VOR - 200 ft / 61 m 19.08539˚ 72.87536˚ 0 nm 0 nm 112° / 112° MUMBAI VOR-DME
DOTIP FIX W16N (AWY-LO) 7,500 ft / 2,286 m 20.75797˚ 72.94630˚ 100 nm 101 nm 2° / 2° -
O VASU APT - 0 ft / 0 m 21.11406˚ 72.74179˚ 24 nm 125 nm 332° / 332° SURAT

Altitude Profile

Advertisement - Login to hide

VABB

Details ICAO VABB (BOM)
Name Bombay Mumbai Chhatrapati Shivaji Intl
Region India
Timezone Asia/Kolkata (UTC+5.5)
Stats Elevation 37 ft / 11 m (AMSL)
Location 19.088978° 72.865914°
Runways 2
Magnetic Variation 0.146° W

METAR

VABB 250200Z 31005KT 5000 HZ SCT020 BKN100 30/24 Q1007 NOSIG

Decode

TAF

TAF VABB 242300Z 2500/2606 VRB03KT 3000 HZ SCT020 SCT100 BECMG 2504/2506 26008KT 5000 HZ FEW020 SCT025 BECMG 2508/2510 27008G18KT BECMG 2513/2515 30006KT SCT020 SCT100 BECMG 2521/2523 VRB03KT 3000 HZ BECMG 2604/2606 26008KT 5000 HZ FEW020 SCT025

Decode

Departure Runways

ID Width Length Bearing (true) Bearing (mag) Surface Threshold Offset Overrun Length
09 148 ft / 45 m 11,436 ft / 3,486 m 89.16° 89.31° Asphalt 465 ft / 142 m 0 ft / 0 m
14 150 ft / 46 m 9,606 ft / 2,928 m 134.33° 134.48° Asphalt 1,338 ft / 408 m 223 ft / 68 m
27 148 ft / 45 m 11,436 ft / 3,486 m 269.17° 269.32° Asphalt 1,581 ft / 482 m 0 ft / 0 m
32 150 ft / 46 m 9,606 ft / 2,928 m 314.34° 314.49° Asphalt 853 ft / 260 m 0 ft / 0 m

VASU

Details ICAO VASU (STV)
Name SURAT
Region India
Timezone Asia/Kolkata (UTC+5.5)
Stats Elevation 16 ft / 5 m (AMSL)
Location 21.114060° 72.741790°
Runways 1
Magnetic Variation 0.180° E

METAR

VASU 250200Z 24002KT 6000 FEW020 BKN100 28/22 Q1006

Decode

TAF

Not found

Destination Runways

ID Width Length Bearing (true) Bearing (mag) Surface Threshold Offset Overrun Length
04 100 ft / 30 m 3,596 ft / 1,096 m 42.70° 42.52° Asphalt 0 ft / 0 m 0 ft / 0 m
22 100 ft / 30 m 3,596 ft / 1,096 m 222.70° 222.52° Asphalt 0 ft / 0 m 0 ft / 0 m

Popular Alternatives